Location: Waco, TX
(31.5481°N, 97.1672°W)
Time: 23:08:19
(UTC-05:00)

ISS - Visible Passes

Search period start: 16 July 2018 00:00
Search period end: 26 July 2018 00:00
Orbit: 402 x 408 km, 51.6° (Epoch: 17 July)

Date Brightness Start Highest point End Pass type
(mag) Time Alt. Az. Time Alt. Az. Time Alt. Az.
17 Jul -0.5 05:40:43 10° N 05:42:25 13° NNE 05:44:08 10° ENE visible
18 Jul -2.6 21:24:25 10° S 21:26:59 21° SE 21:29:34 10° ENE visible
18 Jul -1.5 23:00:37 10° W 23:03:22 24° NW 23:04:29 20° N visible
19 Jul -1.6 05:31:59 10° NNW 05:34:55 29° NE 05:37:51 10° ESE visible
19 Jul -2.9 22:07:59 10° WSW 22:11:10 49° NW 22:14:21 10° NE visible
20 Jul -0.6 04:40:29 10° N 04:42:40 16° NE 04:44:50 10° ENE visible
20 Jul -3.9 21:15:49 10° SW 21:19:04 69° SE 21:22:18 10° NE visible
20 Jul -0.3 22:54:42 10° NW 22:55:51 11° NNW 22:57:01 10° N visible
21 Jul -3.9 05:23:54 10° NW 05:27:11 87° NE 05:30:28 10° SE visible
21 Jul -0.9 22:01:03 10° W 22:03:30 19° NW 22:05:59 10° NNE visible
22 Jul -2.3 04:31:56 10° NNW 04:35:02 38° NE 04:38:07 10° ESE visible
22 Jul -2.0 06:09:34 10° W 06:11:13 13° SW 06:12:52 10° SSW visible
22 Jul -2.1 21:08:11 10° WSW 21:11:14 37° NW 21:14:19 10° NNE visible
24 Jul -0.7 21:01:26 10° WNW 21:03:33 16° NW 21:05:40 10° N visible
